Regional Weather Roundup
Issued by NWS Jackson, KY

Home | Current Version | Previous Version | Text Only | Print | Product List | Glossary Off
Versions: 1 2 3 4 5 6 7 8 9 10 11 12 13 14 15 16 17 18 19 20 21 22 23 24 25 26 27

000
ASUS43 KJKL 180710
RWRJKL

EAST KENTUCKY HOURLY WEATHER ROUNDUP
NATIONAL WEATHER SERVICE JACKSON KY
300 AM EDT WED OCT 18 2017

NOTE: "FAIR" INDICATES FEW OR NO CLOUDS BELOW 12,000 FEET WITH
NO SIGNIFICANT WEATHER AND/OR OBSTRUCTIONS TO VISIBILITY.

* THESE REPORTS ARE NOT UNDER NWS QUALITY CONTROL AND MAY NOT
  REPORT WEATHER SUCH AS PRECIPITATION AND FOG.

KYZ079-080-083-085-087-088-110-112-115-119-120-180800
...EASTERN KENTUCKY...

CITY           SKY/WX    TMP DP  RH WIND       PRES   REMARKS
JACKSON        CLEAR     46  41  82 CALM      30.29S
LONDON         CLEAR     42  40  92 CALM      30.29S
SOMERSET*      CLOUDY    39  39 100 CALM      30.30S
MONTICELLO*    PTCLDY    40  39  97 CALM      30.31S
WILLIAMSBURG*  SUNNY     41  41 100 CALM      30.29S
MIDDLESBORO*   CLEAR     39  39 100 CALM      30.32F
HARLAN APT*    CLOUDY    41  39  93 CALM      30.31F
PIKE CO APT*     N/A     46  42  88 SE5       30.30S
BIG SANDY APT* SUNNY     41  41 100 CALM      30.31S
MOREHEAD APT*  SUNNY     46  39  76 SE5       30.31S
$$

KYZ035-036-041-042-044-050-067-078-099-180800
...CENTRAL KENTUCKY...

CITY           SKY/WX    TMP DP  RH WIND       PRES   REMARKS
MT STERLING*   CLEAR     39  37  93 CALM      30.31S
FLEMING/MASON* CLEAR     41  39  93 E3        30.31S
DANVILLE*      CLOUDY    39  37  93 CALM      30.29S
LEXINGTON      CLOUDY    44  39  82 SE6       30.28S
FRANKFORT      CLEAR     42  38  85 CALM      30.27S
LOUISVILLE     PTCLDY    49  45  86 SE3       30.27S
LEBANON*         N/A     45  39  81 CALM      30.28R HAZE
GLASGOW*       CLEAR     41  41 100 CALM      30.27S
BOWLING GREEN  CLEAR     42  42 100 CALM      30.27F FOG
$$

KYZ091>093-OHZ055-061-077-WVZ005-015-034-035-042-180800
...SOUTHERN OHIO/WEST VIRGINIA...

CITY           SKY/WX    TMP DP  RH WIND       PRES   REMARKS
COVINGTON      PTCLDY    46  41  82 S6        30.27S
COLUMBUS       CLEAR     44  43  96 CALM      30.29S
DAYTON         CLEAR     47  42  83 S7        30.29R
WILMINGTON     CLEAR     43  40  89 CALM      30.29S
HUNTINGTON     CLEAR     42  39  89 CALM      30.30S
CHARLESTON     PTCLDY    39  38  96 CALM      30.32S
PINEVILLE*     CLEAR     38  37  96 MISG      30.37S
BECKLEY        CLEAR     37  33  85 CALM      30.33R
BLUEFIELD      CLEAR     44  32  62 CALM      30.33R
LOGAN CO APT*    N/A     46  39  76 CALM      30.31S
$$

VAZ002-007-008-TNZ017-027-036-066-071-180800
...SOUTHWEST VIRGINIA/EAST TENNESSEE...

CITY           SKY/WX    TMP DP  RH WIND       PRES   REMARKS
WISE*          CLEAR     46  36  66 SE3       30.32S
JONESVILLE*      N/A     37  37 100 CALM      30.33S
ABINGDON*      CLEAR     43  40  89 E3        30.32S
BRISTOL        CLEAR     41  41 100 CALM      30.31F
MORRISTOWN*    SUNNY     45  39  81 CALM      30.29S
SEVIERVILLE*   SUNNY     43  41  93 CALM      30.30S
KNOXVILLE      PTCLDY    45  45 100 W3        30.29S
LAFOLLETTE*    SUNNY     41  41 100 CALM      30.34S
OAK RIDGE      CLOUDY    45  45 100 CALM      30.32R
CROSSVILLE     CLOUDY    41  39  93 CALM      30.30S
NASHVILLE      CLEAR     46  44  93 S3        30.27F
$$

...KEY TO REMARKS...
VSB - VISIBILITY IN MILES
WCI - WIND CHILL INDEX
HX  - HEAT INDEX

$$




USA.gov is the U.S. government's official web portal to all federal, state and local government web resources and services.